Time,TemperatureF,DewpointF,PressureIn,WindDirection,WindDirectionDegrees,WindSpeedMPH,WindSpeedGustMPH,Humidity,HourlyPrecipIn,Conditions,Clouds,dailyrainin,SoftwareType,DateUTC
2013-07-19 00:01:00,58.9,55.4,30.14,NNE,13,0.0,0.0,88,0.00,,---,0.00,VWS V13.00,2013-07-19 07:01:00,
2013-07-19 00:06:00,58.7,55.2,30.14,NNE,13,0.0,0.0,88,0.00,,---,0.00,VWS V13.00,2013-07-19 07:06:00,
2013-07-19 00:10:00,58.6,55.4,30.14,NNE,13,0.0,0.0,89,0.00,,---,0.00,VWS V13.00,2013-07-19 07:10:00,
2013-07-19 00:15:00,58.4,55.2,30.14,NNE,13,0.0,0.0,89,0.00,,---,0.00,VWS V13.00,2013-07-19 07:15:00,
2013-07-19 00:20:00,58.3,55.1,30.14,NNE,13,0.0,0.0,89,0.00,,---,0.00,VWS V13.00,2013-07-19 07:20:00,
2013-07-19 00:25:00,58.1,54.9,30.14,NNE,13,0.0,0.0,89,0.00,,---,0.00,VWS V13.00,2013-07-19 07:25:00,
2013-07-19 00:30:00,58.0,54.8,30.14,NNE,13,0.0,0.0,89,0.00,,---,0.00,VWS V13.00,2013-07-19 07:30:00,
2013-07-19 00:35:00,58.0,54.8,30.14,NNE,13,0.0,0.0,89,0.00,,---,0.00,VWS V13.00,2013-07-19 07:35:00,
2013-07-19 00:40:00,57.8,54.6,30.14,NNE,13,0.0,0.0,89,0.00,,---,0.00,VWS V13.00,2013-07-19 07:40:00,
2013-07-19 00:45:00,57.6,54.4,30.14,NNE,13,0.0,0.0,89,0.00,,---,0.00,VWS V13.00,2013-07-19 07:45:00,
2013-07-19 00:50:00,57.5,54.6,30.14,NNE,13,0.0,0.0,90,0.00,,---,0.00,VWS V13.00,2013-07-19 07:50:00,
2013-07-19 00:55:00,57.3,54.4,30.14,NNE,13,0.0,0.0,90,0.00,,---,0.00,VWS V13.00,2013-07-19 07:55:00,
2013-07-19 01:00:00,57.3,54.4,30.14,NNE,13,0.0,0.0,90,0.00,,---,0.00,VWS V13.00,2013-07-19 08:00:00,
2013-07-19 01:05:00,57.2,54.3,30.14,NNE,13,0.0,0.0,90,0.00,,---,0.00,VWS V13.00,2013-07-19 08:05:00,
2013-07-19 01:10:00,57.0,54.1,30.14,NNE,13,0.0,0.0,90,0.00,,---,0.00,VWS V13.00,2013-07-19 08:10:00,
2013-07-19 01:15:00,57.0,54.1,30.14,NNE,13,0.0,0.0,90,0.00,,---,0.00,VWS V13.00,2013-07-19 08:15:00,
2013-07-19 01:20:00,56.9,54.0,30.14,NNE,13,0.0,0.0,90,0.00,,---,0.00,VWS V13.00,2013-07-19 08:20:00,
2013-07-19 01:25:00,56.7,53.8,30.14,NNE,13,0.0,0.0,90,0.00,,---,0.00,VWS V13.00,2013-07-19 08:25:00,
2013-07-19 01:30:00,56.6,54.0,30.14,NNE,13,0.0,0.0,91,0.00,,---,0.00,VWS V13.00,2013-07-19 08:30:00,
2013-07-19 01:35:00,56.6,54.0,30.14,NNE,13,0.0,0.0,91,0.00,,---,0.00,VWS V13.00,2013-07-19 08:35:00,
2013-07-19 01:40:00,56.5,53.9,30.14,NNE,13,0.0,0.0,91,0.00,,---,0.00,VWS V13.00,2013-07-19 08:40:00,
2013-07-19 01:45:00,56.3,53.7,30.14,NNE,13,0.0,0.0,91,0.00,,---,0.00,VWS V13.00,2013-07-19 08:45:00,
2013-07-19 01:50:00,56.2,53.6,30.14,North,10,0.0,0.0,91,0.00,,---,0.00,VWS V13.00,2013-07-19 08:50:00,
2013-07-19 01:55:00,56.2,53.6,30.14,NNE,13,0.0,0.0,91,0.00,,---,0.00,VWS V13.00,2013-07-19 08:55:00,
2013-07-19 02:00:00,56.0,53.4,30.14,NNE,13,0.0,0.0,91,0.00,,---,0.00,VWS V13.00,2013-07-19 09:00:00,
2013-07-19 02:05:00,56.0,53.4,30.14,NNE,13,0.0,0.0,91,0.00,,---,0.00,VWS V13.00,2013-07-19 09:05:00,
2013-07-19 02:10:00,55.9,53.6,30.14,NNE,13,0.0,0.0,92,0.00,,---,0.00,VWS V13.00,2013-07-19 09:10:00,
2013-07-19 02:15:00,55.7,53.4,30.14,NNE,13,0.0,0.0,92,0.00,,---,0.00,VWS V13.00,2013-07-19 09:15:00,
2013-07-19 02:20:00,55.7,53.4,30.14,NNE,13,0.0,0.0,92,0.00,,---,0.00,VWS V13.00,2013-07-19 09:20:00,
2013-07-19 02:25:00,55.6,53.3,30.14,NNE,13,0.0,0.0,92,0.00,,---,0.00,VWS V13.00,2013-07-19 09:25:00,
2013-07-19 02:30:00,55.4,53.1,30.14,NNE,13,0.0,0.0,92,0.00,,---,0.00,VWS V13.00,2013-07-19 09:30:00,
2013-07-19 02:35:00,55.3,53.0,30.14,NNE,13,0.0,0.0,92,0.00,,---,0.00,VWS V13.00,2013-07-19 09:35:00,
2013-07-19 02:40:00,55.3,53.0,30.14,NNE,13,0.0,0.0,92,0.00,,---,0.00,VWS V13.00,2013-07-19 09:40:00,
2013-07-19 02:45:00,55.1,52.8,30.14,NNE,13,0.0,0.0,92,0.00,,---,0.00,VWS V13.00,2013-07-19 09:45:00,
2013-07-19 02:50:00,55.0,52.7,30.14,NNE,13,0.0,0.0,92,0.00,,---,0.00,VWS V13.00,2013-07-19 09:50:00,
2013-07-19 02:55:00,55.0,52.7,30.14,NNE,13,0.0,0.0,92,0.00,,---,0.00,VWS V13.00,2013-07-19 09:55:00,
2013-07-19 03:00:00,54.8,52.5,30.14,NNE,13,0.0,0.0,92,0.00,,---,0.00,VWS V13.00,2013-07-19 10:00:00,
2013-07-19 03:05:00,54.8,52.5,30.14,NNE,13,0.0,0.0,92,0.00,,---,0.00,VWS V13.00,2013-07-19 10:05:00,
2013-07-19 03:10:00,54.8,52.5,30.14,NNE,13,0.0,0.0,92,0.00,,---,0.00,VWS V13.00,2013-07-19 10:10:00,
2013-07-19 03:15:00,54.8,52.5,30.14,NNE,13,0.0,0.0,92,0.00,,---,0.00,VWS V13.00,2013-07-19 10:15:00,
2013-07-19 03:20:00,54.7,52.4,30.14,NNE,13,0.0,0.0,92,0.00,,---,0.00,VWS V13.00,2013-07-19 10:20:00,
2013-07-19 03:25:00,54.7,52.4,30.15,NNE,13,0.0,0.0,92,0.00,,---,0.00,VWS V13.00,2013-07-19 10:25:00,
2013-07-19 03:30:00,54.5,52.2,30.15,NNE,13,0.0,0.0,92,0.00,,---,0.00,VWS V13.00,2013-07-19 10:30:00,
2013-07-19 03:35:00,54.5,52.5,30.15,NNE,13,0.0,0.0,93,0.00,,---,0.00,VWS V13.00,2013-07-19 10:35:00,
2013-07-19 03:40:00,54.4,52.4,30.15,NNE,13,0.0,0.0,93,0.00,,---,0.00,VWS V13.00,2013-07-19 10:40:00,
2013-07-19 03:45:00,54.4,52.4,30.15,NNE,13,0.0,0.0,93,0.00,,---,0.00,VWS V13.00,2013-07-19 10:45:00,
2013-07-19 03:50:00,54.2,52.2,30.15,NNE,13,0.0,0.0,93,0.00,,---,0.00,VWS V13.00,2013-07-19 10:50:00,
2013-07-19 03:55:00,54.1,52.1,30.15,NNE,13,0.0,0.0,93,0.00,,---,0.00,VWS V13.00,2013-07-19 10:55:00,
2013-07-19 04:00:00,54.1,52.1,30.15,NNE,13,0.0,0.0,93,0.00,,---,0.00,VWS V13.00,2013-07-19 11:00:00,
2013-07-19 04:05:00,53.9,51.9,30.15,NNE,13,0.0,0.0,93,0.00,,---,0.00,VWS V13.00,2013-07-19 11:05:00,
2013-07-19 04:10:00,53.9,51.9,30.15,NNE,13,0.0,0.0,93,0.00,,---,0.00,VWS V13.00,2013-07-19 11:10:00,
2013-07-19 04:15:00,53.8,51.8,30.15,NNE,13,0.0,0.0,93,0.00,,---,0.00,VWS V13.00,2013-07-19 11:15:00,
2013-07-19 04:20:00,53.8,51.8,30.15,NNE,13,0.0,0.0,93,0.00,,---,0.00,VWS V13.00,2013-07-19 11:20:00,
2013-07-19 04:25:00,53.6,51.6,30.15,NNE,13,0.0,0.0,93,0.00,,---,0.00,VWS V13.00,2013-07-19 11:25:00,
2013-07-19 04:30:00,53.6,51.6,30.15,NNE,13,0.0,0.0,93,0.00,,---,0.00,VWS V13.00,2013-07-19 11:30:00,
2013-07-19 04:35:00,53.6,51.6,30.15,NNE,13,0.0,0.0,93,0.00,,---,0.00,VWS V13.00,2013-07-19 11:35:00,
2013-07-19 04:40:00,53.6,51.6,30.15,NNE,13,0.0,0.0,93,0.00,,---,0.00,VWS V13.00,2013-07-19 11:40:00,
2013-07-19 04:45:00,53.6,51.6,30.15,NNE,13,0.0,0.0,93,0.00,,---,0.00,VWS V13.00,2013-07-19 11:45:00,
2013-07-19 04:50:00,53.6,51.6,30.15,NNE,13,0.0,0.0,93,0.00,,---,0.00,VWS V13.00,2013-07-19 11:50:00,
2013-07-19 04:55:00,53.6,51.9,30.15,NNE,13,0.0,0.0,94,0.00,,---,0.00,VWS V13.00,2013-07-19 11:55:00,
2013-07-19 05:00:00,53.6,51.9,30.15,NNE,13,0.0,0.0,94,0.00,,---,0.00,VWS V13.00,2013-07-19 12:00:00,
2013-07-19 05:05:00,53.6,51.9,30.15,NNE,13,0.0,0.0,94,0.00,,---,0.00,VWS V13.00,2013-07-19 12:05:00,
2013-07-19 05:10:00,53.6,51.9,30.16,NNE,13,0.0,0.0,94,0.00,,---,0.00,VWS V13.00,2013-07-19 12:10:00,
2013-07-19 05:15:00,53.6,51.9,30.16,NNE,13,0.0,0.0,94,0.00,,---,0.00,VWS V13.00,2013-07-19 12:15:00,
2013-07-19 05:20:00,53.8,52.1,30.16,NNE,13,0.0,0.0,94,0.00,,---,0.00,VWS V13.00,2013-07-19 12:20:00,
2013-07-19 05:25:00,53.9,52.2,30.16,NNE,13,0.0,0.0,94,0.00,,---,0.00,VWS V13.00,2013-07-19 12:25:00,
2013-07-19 05:30:00,53.9,52.2,30.16,NNE,13,0.0,0.0,94,0.00,,---,0.00,VWS V13.00,2013-07-19 12:30:00,
2013-07-19 05:35:00,53.9,52.2,30.16,NNE,13,0.0,0.0,94,0.00,,---,0.00,VWS V13.00,2013-07-19 12:35:00,
2013-07-19 05:40:00,54.1,52.4,30.16,NNE,13,0.0,0.0,94,0.00,,---,0.00,VWS V13.00,2013-07-19 12:40:00,
2013-07-19 05:45:00,54.2,52.5,30.16,NNE,13,0.0,0.0,94,0.00,,---,0.00,VWS V13.00,2013-07-19 12:45:00,
2013-07-19 05:50:00,54.4,53.0,30.16,NNE,13,0.0,0.0,95,0.00,,---,0.00,VWS V13.00,2013-07-19 12:50:00,
2013-07-19 05:55:00,54.5,53.1,30.16,NNE,13,0.0,0.0,95,0.00,,---,0.00,VWS V13.00,2013-07-19 12:55:00,
2013-07-19 06:00:00,54.7,53.3,30.16,NNE,13,0.0,0.0,95,0.00,,---,0.00,VWS V13.00,2013-07-19 13:00:00,
2013-07-19 06:05:00,54.8,53.4,30.16,NNE,13,0.0,0.0,95,0.00,,---,0.00,VWS V13.00,2013-07-19 13:05:00,
2013-07-19 06:10:00,55.0,53.6,30.16,NNE,13,0.0,0.0,95,0.00,,---,0.00,VWS V13.00,2013-07-19 13:10:00,
2013-07-19 06:15:00,55.3,53.9,30.16,WNW,296,0.0,0.0,95,0.00,,---,0.00,VWS V13.00,2013-07-19 13:15:00,
2013-07-19 06:20:00,55.4,54.0,30.16,WNW,296,0.0,0.0,95,0.00,,---,0.00,VWS V13.00,2013-07-19 13:20:00,
2013-07-19 06:25:00,55.6,54.2,30.16,West,261,0.0,0.0,95,0.00,,---,0.00,VWS V13.00,2013-07-19 13:25:00,
2013-07-19 06:26:00,55.6,54.2,30.16,West,261,0.0,0.0,95,0.00,,---,0.00,VWS V13.00,2013-07-19 13:26:00,
2013-07-19 06:31:00,55.6,54.2,30.16,West,261,0.0,0.0,95,0.00,,---,0.00,VWS V13.00,2013-07-19 13:31:00,
2013-07-19 06:36:00,55.7,54.3,30.16,West,261,0.0,0.0,95,0.00,,---,0.00,VWS V13.00,2013-07-19 13:36:00,
2013-07-19 06:41:00,55.9,54.5,30.16,West,261,0.0,0.0,95,0.00,,---,0.00,VWS V13.00,2013-07-19 13:41:00,
2013-07-19 06:46:00,55.9,54.5,30.16,West,261,0.0,0.0,95,0.00,,---,0.00,VWS V13.00,2013-07-19 13:46:00,
2013-07-19 06:51:00,56.0,54.6,30.17,West,261,0.0,0.0,95,0.00,,---,0.00,VWS V13.00,2013-07-19 13:51:00,
2013-07-19 06:56:00,56.0,54.6,30.17,West,261,0.0,0.0,95,0.00,,---,0.00,VWS V13.00,2013-07-19 13:56:00,
2013-07-19 07:01:00,56.0,54.6,30.17,West,261,0.0,0.0,95,0.00,,---,0.00,VWS V13.00,2013-07-19 14:01:00,
2013-07-19 07:06:00,56.2,54.8,30.17,West,261,0.0,0.0,95,0.00,,---,0.00,VWS V13.00,2013-07-19 14:06:00,
2013-07-19 07:11:00,56.2,54.8,30.17,West,261,0.0,0.0,95,0.00,,---,0.00,VWS V13.00,2013-07-19 14:11:00,
2013-07-19 07:16:00,56.2,54.8,30.17,West,261,0.0,0.0,95,0.00,,---,0.00,VWS V13.00,2013-07-19 14:16:00,
2013-07-19 07:21:00,56.2,54.5,30.17,West,261,0.0,0.0,94,0.00,,---,0.00,VWS V13.00,2013-07-19 14:21:00,
2013-07-19 07:26:00,56.2,54.5,30.17,West,261,0.0,0.0,94,0.00,,---,0.00,VWS V13.00,2013-07-19 14:26:00,
2013-07-19 07:31:00,56.2,54.5,30.17,West,261,0.0,0.0,94,0.00,,---,0.00,VWS V13.00,2013-07-19 14:31:00,
2013-07-19 07:36:00,56.2,54.5,30.17,West,261,0.0,0.0,94,0.00,,---,0.00,VWS V13.00,2013-07-19 14:36:00,
2013-07-19 07:41:00,56.3,54.6,30.17,West,261,0.0,0.0,94,0.00,,---,0.00,VWS V13.00,2013-07-19 14:41:00,
2013-07-19 07:46:00,56.3,54.6,30.17,West,261,0.0,0.0,94,0.00,,---,0.00,VWS V13.00,2013-07-19 14:46:00,
2013-07-19 07:51:00,56.3,54.6,30.17,West,261,0.0,0.0,94,0.00,,---,0.00,VWS V13.00,2013-07-19 14:51:00,
2013-07-19 07:56:00,56.5,54.8,30.17,West,261,0.0,0.0,94,0.00,,---,0.00,VWS V13.00,2013-07-19 14:56:00,
2013-07-19 08:01:00,56.6,54.9,30.17,West,261,0.0,0.0,94,0.00,,---,0.00,VWS V13.00,2013-07-19 15:01:00,
2013-07-19 08:06:00,56.7,55.0,30.17,West,261,0.0,0.0,94,0.00,,---,0.00,VWS V13.00,2013-07-19 15:06:00,
2013-07-19 08:11:00,56.7,55.0,30.17,West,261,0.0,0.0,94,0.00,,---,0.00,VWS V13.00,2013-07-19 15:11:00,
2013-07-19 08:16:00,56.7,54.7,30.17,West,261,0.0,0.0,93,0.00,,---,0.00,VWS V13.00,2013-07-19 15:16:00,
2013-07-19 08:21:00,56.9,54.9,30.17,West,261,0.0,0.0,93,0.00,,---,0.00,VWS V13.00,2013-07-19 15:21:00,
2013-07-19 08:26:00,56.9,54.9,30.17,West,261,0.0,0.0,93,0.00,,---,0.00,VWS V13.00,2013-07-19 15:26:00,
2013-07-19 08:31:00,56.9,54.9,30.17,West,261,0.0,0.0,93,0.00,,---,0.00,VWS V13.00,2013-07-19 15:31:00,
2013-07-19 08:36:00,57.0,55.0,30.17,West,261,0.0,0.0,93,0.00,,---,0.00,VWS V13.00,2013-07-19 15:36:00,
2013-07-19 08:41:00,57.2,55.2,30.17,West,261,0.0,0.0,93,0.00,,---,0.00,VWS V13.00,2013-07-19 15:41:00,
2013-07-19 08:46:00,57.3,55.3,30.17,West,261,0.0,0.0,93,0.00,,---,0.00,VWS V13.00,2013-07-19 15:46:00,
2013-07-19 08:51:00,57.5,55.2,30.17,West,261,0.0,0.0,92,0.00,,---,0.00,VWS V13.00,2013-07-19 15:51:00,
2013-07-19 08:56:00,57.8,55.5,30.17,WNW,284,2.0,2.0,92,0.00,,---,0.00,VWS V13.00,2013-07-19 15:56:00,
2013-07-19 09:01:00,57.8,55.5,30.17,WNW,282,0.0,2.0,92,0.00,,---,0.00,VWS V13.00,2013-07-19 16:01:00,
2013-07-19 09:06:00,58.1,55.8,30.17,WNW,282,0.0,2.0,92,0.00,,---,0.00,VWS V13.00,2013-07-19 16:06:00,
2013-07-19 09:11:00,58.1,55.8,30.17,WNW,284,0.0,1.0,92,0.00,,---,0.00,VWS V13.00,2013-07-19 16:11:00,
2013-07-19 09:16:00,58.1,55.8,30.17,WNW,295,0.0,1.0,92,0.00,,---,0.00,VWS V13.00,2013-07-19 16:16:00,
2013-07-19 09:21:00,58.0,55.7,30.17,WNW,294,0.0,1.0,92,0.00,,---,0.00,VWS V13.00,2013-07-19 16:21:00,
2013-07-19 09:26:00,58.0,55.7,30.17,WNW,294,0.0,1.0,92,0.00,,---,0.00,VWS V13.00,2013-07-19 16:26:00,
2013-07-19 09:31:00,57.8,55.5,30.17,WNW,294,0.0,1.0,92,0.00,,---,0.00,VWS V13.00,2013-07-19 16:31:00,
2013-07-19 09:36:00,57.8,55.5,30.17,WNW,294,0.0,1.0,92,0.00,,---,0.00,VWS V13.00,2013-07-19 16:36:00,
2013-07-19 09:41:00,57.8,55.8,30.17,WNW,292,0.0,1.0,93,0.00,,---,0.00,VWS V13.00,2013-07-19 16:41:00,
2013-07-19 09:46:00,58.0,56.0,30.17,WNW,292,0.0,1.0,93,0.01,,---,0.01,VWS V13.00,2013-07-19 16:46:00,
2013-07-19 09:51:00,58.0,56.0,30.17,WNW,292,0.0,1.0,93,0.01,,---,0.01,VWS V13.00,2013-07-19 16:51:00,
2013-07-19 09:56:00,57.8,55.8,30.17,WNW,292,0.0,1.0,93,0.01,,---,0.01,VWS V13.00,2013-07-19 16:56:00,
2013-07-19 10:01:00,57.8,55.8,30.17,South,174,0.0,1.0,93,0.01,,---,0.01,VWS V13.00,2013-07-19 17:01:00,
2013-07-19 10:06:00,57.8,55.8,30.17,South,174,0.0,1.0,93,0.01,,---,0.01,VWS V13.00,2013-07-19 17:06:00,
2013-07-19 10:11:00,57.8,55.8,30.17,ENE,65,2.0,2.0,93,0.01,,---,0.01,VWS V13.00,2013-07-19 17:11:00,
2013-07-19 10:16:00,57.8,55.8,30.17,ENE,65,2.0,2.0,93,0.01,,---,0.01,VWS V13.00,2013-07-19 17:16:00,
2013-07-19 10:21:00,57.8,55.8,30.17,ENE,65,2.0,2.0,93,0.01,,---,0.01,VWS V13.00,2013-07-19 17:21:00,
2013-07-19 10:26:00,57.8,55.8,30.17,ENE,65,2.0,2.0,93,0.01,,---,0.01,VWS V13.00,2013-07-19 17:26:00,
2013-07-19 10:31:00,57.8,55.8,30.17,ENE,65,2.0,2.0,93,0.01,,---,0.01,VWS V13.00,2013-07-19 17:31:00,
2013-07-19 10:36:00,58.1,56.1,30.17,SE,134,0.0,2.0,93,0.01,,---,0.01,VWS V13.00,2013-07-19 17:36:00,
2013-07-19 10:41:00,58.3,56.3,30.17,SE,134,0.0,0.0,93,0.01,,---,0.01,VWS V13.00,2013-07-19 17:41:00,
2013-07-19 10:46:00,58.4,56.7,30.17,WNW,299,0.0,3.0,94,0.01,,---,0.01,VWS V13.00,2013-07-19 17:46:00,
2013-07-19 10:51:00,58.6,56.9,30.17,WNW,302,0.0,3.0,94,0.01,,---,0.01,VWS V13.00,2013-07-19 17:51:00,
2013-07-19 10:56:00,58.7,57.0,30.17,NW,315,0.0,3.0,94,0.01,,---,0.01,VWS V13.00,2013-07-19 17:56:00,
2013-07-19 11:01:00,58.7,57.0,30.17,NW,323,0.0,3.0,94,0.01,,---,0.01,VWS V13.00,2013-07-19 18:01:00,
2013-07-19 11:06:00,59.2,57.5,30.17,SE,141,0.0,3.0,94,0.01,,---,0.01,VWS V13.00,2013-07-19 18:06:00,
2013-07-19 11:11:00,59.9,57.9,30.17,North,0,0.0,2.0,93,0.00,,---,0.01,VWS V13.00,2013-07-19 18:11:00,
2013-07-19 11:16:00,60.7,58.4,30.17,North,0,0.0,2.0,92,0.00,,---,0.01,VWS V13.00,2013-07-19 18:16:00,
2013-07-19 11:21:00,61.2,58.6,30.16,North,0,0.0,2.0,91,0.00,,---,0.01,VWS V13.00,2013-07-19 18:21:00,
2013-07-19 11:26:00,61.0,58.4,30.16,NNE,17,0.0,2.0,91,0.00,,---,0.01,VWS V13.00,2013-07-19 18:26:00,
2013-07-19 11:31:00,61.6,58.3,30.16,NNE,17,0.0,2.0,89,0.00,,---,0.01,VWS V13.00,2013-07-19 18:31:00,
2013-07-19 11:36:00,62.1,58.8,30.16,ESE,109,0.0,3.0,89,0.00,,---,0.01,VWS V13.00,2013-07-19 18:36:00,
2013-07-19 11:41:00,62.7,58.5,30.16,SSW,209,0.0,0.0,86,0.00,,---,0.01,VWS V13.00,2013-07-19 18:41:00,
2013-07-19 11:46:00,62.7,58.1,30.16,WSW,253,0.0,0.0,85,0.00,,---,0.01,VWS V13.00,2013-07-19 18:46:00,
2013-07-19 11:51:00,63.7,59.4,30.16,ENE,65,0.0,2.0,86,0.00,,---,0.01,VWS V13.00,2013-07-19 18:51:00,
2013-07-19 11:56:00,64.5,58.9,30.16,WNW,295,0.0,2.0,82,0.00,,---,0.01,VWS V13.00,2013-07-19 18:56:00,
2013-07-19 12:01:00,64.5,57.8,30.16,NE,54,0.0,3.0,79,0.00,,---,0.01,VWS V13.00,2013-07-19 19:01:00,
2013-07-19 12:06:00,64.3,58.0,30.15,SSE,148,0.0,3.0,80,0.00,,---,0.01,VWS V13.00,2013-07-19 19:06:00,
2013-07-19 12:11:00,66.0,59.3,30.15,WNW,288,0.0,1.0,79,0.00,,---,0.01,VWS V13.00,2013-07-19 19:11:00,
2013-07-19 12:16:00,67.1,59.3,30.15,NNE,27,0.0,1.0,76,0.00,,---,0.01,VWS V13.00,2013-07-19 19:16:00,
2013-07-19 12:21:00,66.1,58.7,30.15,East,86,1.0,3.0,77,0.00,,---,0.01,VWS V13.00,2013-07-19 19:21:00,
2013-07-19 12:26:00,66.9,58.3,30.15,NE,55,0.0,3.0,74,0.00,,---,0.01,VWS V13.00,2013-07-19 19:26:00,
2013-07-19 12:31:00,67.1,58.2,30.15,West,274,2.0,5.0,73,0.00,,---,0.01,VWS V13.00,2013-07-19 19:31:00,
2013-07-19 12:36:00,67.3,59.8,30.14,WSW,237,0.0,5.0,77,0.00,,---,0.01,VWS V13.00,2013-07-19 19:36:00,
2013-07-19 12:41:00,68.4,59.4,30.14,South,178,0.0,1.0,73,0.00,,---,0.01,VWS V13.00,2013-07-19 19:41:00,
2013-07-19 12:46:00,68.6,58.8,30.14,NNE,16,0.0,3.0,71,0.00,,---,0.01,VWS V13.00,2013-07-19 19:46:00,
2013-07-19 12:51:00,67.9,58.2,30.14,NE,48,0.0,3.0,71,0.00,,---,0.01,VWS V13.00,2013-07-19 19:51:00,
2013-07-19 12:56:00,70.1,60.3,30.14,NW,320,0.0,3.0,71,0.00,,---,0.01,VWS V13.00,2013-07-19 19:56:00,
2013-07-19 13:01:00,70.6,58.7,30.14,South,186,1.0,3.0,66,0.00,,---,0.01,VWS V13.00,2013-07-19 20:01:00,
2013-07-19 13:06:00,70.1,60.3,30.13,SW,222,0.0,3.0,71,0.00,,---,0.01,VWS V13.00,2013-07-19 20:06:00,
2013-07-19 13:11:00,71.5,60.0,30.13,NNE,27,0.0,0.0,67,0.00,,---,0.01,VWS V13.00,2013-07-19 20:11:00,
2013-07-19 13:16:00,70.8,58.5,30.13,NW,305,0.0,3.0,65,0.00,,---,0.01,VWS V13.00,2013-07-19 20:16:00,
2013-07-19 13:21:00,71.1,59.6,30.13,NW,305,0.0,3.0,67,0.00,,---,0.01,VWS V13.00,2013-07-19 20:21:00,
2013-07-19 13:26:00,71.8,60.3,30.13,East,99,0.0,3.0,67,0.00,,---,0.01,VWS V13.00,2013-07-19 20:26:00,
2013-07-19 13:31:00,72.1,60.5,30.13,NW,304,0.0,3.0,67,0.00,,---,0.01,VWS V13.00,2013-07-19 20:31:00,
2013-07-19 13:36:00,71.8,59.0,30.12,ENE,58,0.0,3.0,64,0.00,,---,0.01,VWS V13.00,2013-07-19 20:36:00,
2013-07-19 13:41:00,71.6,59.7,30.12,NE,44,0.0,0.0,66,0.00,,---,0.01,VWS V13.00,2013-07-19 20:41:00,
2013-07-19 13:46:00,73.3,59.5,30.12,North,357,0.0,1.0,62,0.00,,---,0.01,VWS V13.00,2013-07-19 20:46:00,
2013-07-19 13:51:00,73.5,61.0,30.11,NNW,347,0.0,1.0,65,0.00,,---,0.01,VWS V13.00,2013-07-19 20:51:00,
2013-07-19 13:56:00,73.9,59.2,30.11,NNW,347,0.0,1.0,60,0.00,,---,0.01,VWS V13.00,2013-07-19 20:56:00,
2013-07-19 14:01:00,73.9,59.2,30.11,NW,318,0.0,1.0,60,0.00,,---,0.01,VWS V13.00,2013-07-19 21:01:00,
2013-07-19 14:06:00,75.1,60.3,30.11,NNE,31,0.0,1.0,60,0.00,,---,0.01,VWS V13.00,2013-07-19 21:06:00,
2013-07-19 14:11:00,75.1,59.8,30.11,NNW,344,0.0,0.0,59,0.00,,---,0.01,VWS V13.00,2013-07-19 21:11:00,
2013-07-19 14:16:00,75.1,59.8,30.11,NNW,337,0.0,1.0,59,0.00,,---,0.01,VWS V13.00,2013-07-19 21:16:00,
2013-07-19 14:21:00,74.7,59.4,30.10,WNW,294,0.0,1.0,59,0.00,,---,0.01,VWS V13.00,2013-07-19 21:21:00,
2013-07-19 14:26:00,74.7,59.4,30.10,NW,322,0.0,2.0,59,0.00,,---,0.01,VWS V13.00,2013-07-19 21:26:00,
2013-07-19 14:31:00,74.7,59.4,30.10,East,79,0.0,2.0,59,0.00,,---,0.01,VWS V13.00,2013-07-19 21:31:00,
2013-07-19 14:36:00,75.4,60.1,30.10,NNW,344,0.0,2.0,59,0.00,,---,0.01,VWS V13.00,2013-07-19 21:36:00,
2013-07-19 14:41:00,76.3,60.5,30.10,North,0,0.0,2.0,58,0.00,,---,0.01,VWS V13.00,2013-07-19 21:41:00,
2013-07-19 14:46:00,77.7,62.2,30.10,North,0,0.0,2.0,59,0.00,,---,0.01,VWS V13.00,2013-07-19 21:46:00,
2013-07-19 14:51:00,77.4,60.0,30.10,NW,322,0.0,2.0,55,0.00,,---,0.01,VWS V13.00,2013-07-19 21:51:00,
2013-07-19 14:56:00,77.2,60.3,30.10,North,0,0.0,3.0,56,0.00,,---,0.01,VWS V13.00,2013-07-19 21:56:00,
2013-07-19 15:01:00,77.4,60.0,30.10,NNE,31,0.0,3.0,55,0.00,,---,0.01,VWS V13.00,2013-07-19 22:01:00,
2013-07-19 15:06:00,76.7,59.3,30.09,East,95,0.0,3.0,55,0.00,,---,0.01,VWS V13.00,2013-07-19 22:06:00,
2013-07-19 15:11:00,77.4,62.4,30.09,NNE,13,0.0,1.0,60,0.00,,---,0.01,VWS V13.00,2013-07-19 22:11:00,
2013-07-19 15:16:00,78.3,60.8,30.09,North,0,0.0,1.0,55,0.00,,---,0.01,VWS V13.00,2013-07-19 22:16:00,
2013-07-19 15:21:00,78.1,60.6,30.09,NNW,347,0.0,1.0,55,0.00,,---,0.01,VWS V13.00,2013-07-19 22:21:00,
2013-07-19 15:26:00,78.8,60.8,30.09,NW,320,0.0,1.0,54,0.00,,---,0.01,VWS V13.00,2013-07-19 22:26:00,
2013-07-19 15:31:00,79.0,60.4,30.09,NNW,329,0.0,1.0,53,0.00,,---,0.01,VWS V13.00,2013-07-19 22:31:00,
2013-07-19 15:36:00,79.8,62.2,30.08,NW,306,0.0,2.0,55,0.00,,---,0.01,VWS V13.00,2013-07-19 22:36:00,
2013-07-19 15:41:00,79.2,60.6,30.08,NNW,335,0.0,0.0,53,0.00,,---,0.01,VWS V13.00,2013-07-19 22:41:00,
2013-07-19 15:45:00,79.4,59.7,30.08,NNW,337,1.0,1.0,51,0.00,,---,0.01,VWS V13.00,2013-07-19 22:45:00,
2013-07-19 15:50:00,79.2,60.6,30.08,North,349,0.0,1.0,53,0.00,,---,0.01,VWS V13.00,2013-07-19 22:50:00,
2013-07-19 15:55:00,79.8,61.2,30.08,North,349,0.0,1.0,53,0.00,,---,0.01,VWS V13.00,2013-07-19 22:55:00,
2013-07-19 16:00:00,79.9,60.2,30.08,North,349,0.0,1.0,51,0.00,,---,0.01,VWS V13.00,2013-07-19 23:00:00,
2013-07-19 16:05:00,79.9,60.2,30.08,NE,41,0.0,1.0,51,0.00,,---,0.01,VWS V13.00,2013-07-19 23:05:00,
2013-07-19 16:10:00,79.9,60.7,30.08,NNE,30,0.0,0.0,52,0.00,,---,0.01,VWS V13.00,2013-07-19 23:10:00,
2013-07-19 16:15:00,80.5,61.8,30.08,NNE,30,0.0,0.0,53,0.00,,---,0.01,VWS V13.00,2013-07-19 23:15:00,
2013-07-19 16:20:00,79.9,60.7,30.07,North,350,0.0,1.0,52,0.00,,---,0.01,VWS V13.00,2013-07-19 23:20:00,
2013-07-19 16:25:00,79.9,59.6,30.07,North,349,0.0,3.0,50,0.00,,---,0.01,VWS V13.00,2013-07-19 23:25:00,
2013-07-19 16:30:00,79.6,59.9,30.07,North,0,0.0,3.0,51,0.00,,---,0.01,VWS V13.00,2013-07-19 23:30:00,
2013-07-19 16:35:00,79.9,61.8,30.07,North,0,0.0,3.0,54,0.00,,---,0.01,VWS V13.00,2013-07-19 23:35:00,
2013-07-19 16:40:00,80.5,61.3,30.07,North,0,0.0,0.0,52,0.00,,---,0.01,VWS V13.00,2013-07-19 23:40:00,
2013-07-19 16:45:00,80.7,60.9,30.07,North,0,0.0,1.0,51,0.00,,---,0.01,VWS V13.00,2013-07-19 23:45:00,
2013-07-19 16:50:00,80.3,60.0,30.07,North,0,0.0,2.0,50,0.00,,---,0.01,VWS V13.00,2013-07-19 23:50:00,
2013-07-19 16:55:00,80.3,61.6,30.07,North,0,0.0,2.0,53,0.00,,---,0.01,VWS V13.00,2013-07-19 23:55:00,
2013-07-19 17:00:00,80.3,60.5,30.07,North,0,0.0,2.0,51,0.00,,---,0.01,VWS V13.00,2013-07-20 00:00:00,
2013-07-19 17:05:00,80.1,61.4,30.06,North,0,0.0,2.0,53,0.00,,---,0.01,VWS V13.00,2013-07-20 00:05:00,
2013-07-19 17:10:00,80.1,60.4,30.06,North,0,0.0,0.0,51,0.00,,---,0.01,VWS V13.00,2013-07-20 00:10:00,
2013-07-19 17:15:00,80.3,61.1,30.06,North,0,0.0,1.0,52,0.00,,---,0.01,VWS V13.00,2013-07-20 00:15:00,
2013-07-19 17:20:00,80.7,59.8,30.05,NW,315,0.0,2.0,49,0.00,,---,0.01,VWS V13.00,2013-07-20 00:20:00,
2013-07-19 17:25:00,80.9,60.5,30.05,NNW,330,0.0,2.0,50,0.00,,---,0.01,VWS V13.00,2013-07-20 00:25:00,
2013-07-19 17:30:00,81.2,60.2,30.05,NNW,344,0.0,2.0,49,0.00,,---,0.01,VWS V13.00,2013-07-20 00:30:00,
2013-07-19 17:35:00,81.2,61.4,30.05,NNW,344,0.0,2.0,51,0.00,,---,0.01,VWS V13.00,2013-07-20 00:35:00,
2013-07-19 17:40:00,81.4,61.5,30.05,NNW,344,0.0,0.0,51,0.00,,---,0.01,VWS V13.00,2013-07-20 00:40:00,
2013-07-19 17:45:00,81.6,61.7,30.05,NNW,344,0.0,0.0,51,0.00,,---,0.01,VWS V13.00,2013-07-20 00:45:00,
2013-07-19 17:50:00,81.8,61.4,30.05,NNW,332,0.0,1.0,50,0.00,,---,0.01,VWS V13.00,2013-07-20 00:50:00,
2013-07-19 17:55:00,81.6,61.2,30.05,NNW,332,0.0,1.0,50,0.00,,---,0.01,VWS V13.00,2013-07-20 00:55:00,
2013-07-19 18:00:00,81.2,60.2,30.05,NNW,335,0.0,1.0,49,0.00,,---,0.01,VWS V13.00,2013-07-20 01:00:00,
2013-07-19 18:05:00,81.1,60.2,30.05,North,6,0.0,1.0,49,0.00,,---,0.01,VWS V13.00,2013-07-20 01:05:00,
2013-07-19 18:10:00,80.5,60.7,30.04,North,6,0.0,0.0,51,0.00,,---,0.01,VWS V13.00,2013-07-20 01:10:00,
2013-07-19 18:15:00,80.1,60.9,30.04,North,6,0.0,0.0,52,0.00,,---,0.01,VWS V13.00,2013-07-20 01:15:00,
2013-07-19 18:20:00,79.6,59.9,30.04,North,6,0.0,0.0,51,0.00,,---,0.01,VWS V13.00,2013-07-20 01:20:00,
2013-07-19 18:25:00,79.2,60.6,30.04,North,6,0.0,0.0,53,0.00,,---,0.01,VWS V13.00,2013-07-20 01:25:00,
2013-07-19 18:30:00,78.8,59.2,30.04,North,6,0.0,1.0,51,0.00,,---,0.01,VWS V13.00,2013-07-20 01:30:00,
2013-07-19 18:35:00,78.6,60.1,30.04,North,6,0.0,1.0,53,0.00,,---,0.01,VWS V13.00,2013-07-20 01:35:00,
2013-07-19 18:40:00,78.3,61.3,30.04,North,6,0.0,0.0,56,0.00,,---,0.01,VWS V13.00,2013-07-20 01:40:00,
2013-07-19 18:45:00,77.9,61.5,30.04,North,6,0.0,0.0,57,0.00,,---,0.01,VWS V13.00,2013-07-20 01:45:00,
2013-07-19 18:50:00,77.7,61.8,30.04,North,6,0.0,0.0,58,0.00,,---,0.01,VWS V13.00,2013-07-20 01:50:00,
2013-07-19 18:55:00,77.6,61.7,30.04,North,6,0.0,0.0,58,0.00,,---,0.01,VWS V13.00,2013-07-20 01:55:00,
2013-07-19 19:00:00,77.4,60.5,30.04,North,6,0.0,0.0,56,0.00,,---,0.01,VWS V13.00,2013-07-20 02:00:00,
2013-07-19 19:05:00,77.4,60.5,30.04,North,6,0.0,0.0,56,0.00,,---,0.01,VWS V13.00,2013-07-20 02:05:00,
2013-07-19 19:10:00,77.2,60.8,30.04,North,6,0.0,0.0,57,0.00,,---,0.01,VWS V13.00,2013-07-20 02:10:00,
2013-07-19 19:15:00,77.2,61.8,30.04,North,6,0.0,0.0,59,0.00,,---,0.01,VWS V13.00,2013-07-20 02:15:00,
2013-07-19 19:20:00,77.0,61.1,30.04,North,6,0.0,0.0,58,0.00,,---,0.01,VWS V13.00,2013-07-20 02:20:00,
2013-07-19 19:25:00,77.0,61.1,30.04,North,6,0.0,0.0,58,0.00,,---,0.01,VWS V13.00,2013-07-20 02:25:00,
2013-07-19 19:30:00,76.8,60.9,30.04,North,6,0.0,0.0,58,0.00,,---,0.01,VWS V13.00,2013-07-20 02:30:00,
2013-07-19 19:35:00,76.7,61.3,30.04,North,6,0.0,0.0,59,0.00,,---,0.01,VWS V13.00,2013-07-20 02:35:00,
2013-07-19 19:40:00,76.5,61.1,30.04,North,6,0.0,0.0,59,0.00,,---,0.01,VWS V13.00,2013-07-20 02:40:00,
2013-07-19 19:45:00,76.3,61.4,30.04,North,6,0.0,0.0,60,0.00,,---,0.01,VWS V13.00,2013-07-20 02:45:00,
2013-07-19 19:50:00,76.0,61.6,30.04,North,6,0.0,0.0,61,0.00,,---,0.01,VWS V13.00,2013-07-20 02:50:00,
2013-07-19 19:55:00,75.4,61.5,30.04,North,6,0.0,0.0,62,0.00,,---,0.01,VWS V13.00,2013-07-20 02:55:00,
2013-07-19 20:00:00,75.1,61.7,30.04,North,6,0.0,0.0,63,0.00,,---,0.01,VWS V13.00,2013-07-20 03:00:00,
2013-07-19 20:05:00,74.6,61.6,30.04,East,93,0.0,0.0,64,0.00,,---,0.01,VWS V13.00,2013-07-20 03:05:00,
2013-07-19 20:10:00,74.2,61.2,30.04,East,95,0.0,0.0,64,0.00,,---,0.01,VWS V13.00,2013-07-20 03:10:00,
2013-07-19 20:15:00,73.9,61.4,30.04,East,95,0.0,0.0,65,0.00,,---,0.01,VWS V13.00,2013-07-20 03:15:00,
2013-07-19 20:20:00,73.3,60.8,30.04,East,95,0.0,0.0,65,0.00,,---,0.01,VWS V13.00,2013-07-20 03:20:00,
2013-07-19 20:25:00,73.0,61.0,30.04,East,95,0.0,0.0,66,0.00,,---,0.01,VWS V13.00,2013-07-20 03:25:00,
2013-07-19 20:30:00,72.7,61.1,30.04,East,95,0.0,0.0,67,0.00,,---,0.01,VWS V13.00,2013-07-20 03:30:00,
2013-07-19 20:35:00,72.1,60.5,30.04,East,95,0.0,0.0,67,0.00,,---,0.01,VWS V13.00,2013-07-20 03:35:00,
2013-07-19 20:40:00,71.8,60.3,30.05,East,95,0.0,0.0,67,0.00,,---,0.01,VWS V13.00,2013-07-20 03:40:00,
2013-07-19 20:45:00,71.5,60.4,30.05,East,95,0.0,0.0,68,0.00,,---,0.01,VWS V13.00,2013-07-20 03:45:00,
2013-07-19 20:50:00,71.1,60.0,30.05,East,93,0.0,0.0,68,0.00,,---,0.01,VWS V13.00,2013-07-20 03:50:00,
2013-07-19 20:55:00,70.8,60.1,30.05,East,95,0.0,0.0,69,0.00,,---,0.01,VWS V13.00,2013-07-20 03:55:00,
2013-07-19 21:00:00,70.4,59.8,30.05,East,93,0.0,0.0,69,0.00,,---,0.01,VWS V13.00,2013-07-20 04:00:00,
2013-07-19 21:01:00,70.4,59.8,30.05,East,93,0.0,0.0,69,0.00,,---,0.01,VWS V13.00,2013-07-20 04:01:00,
2013-07-19 21:02:00,70.3,60.1,30.05,East,95,0.0,0.0,70,0.00,,---,0.01,VWS V13.00,2013-07-20 04:02:00,
2013-07-19 21:07:00,69.9,59.7,30.05,East,95,0.0,0.0,70,0.00,,---,0.01,VWS V13.00,2013-07-20 04:07:00,
2013-07-19 21:12:00,69.6,59.4,30.05,East,95,0.0,0.0,70,0.00,,---,0.01,VWS V13.00,2013-07-20 04:12:00,
2013-07-19 21:17:00,69.3,59.5,30.05,East,95,0.0,0.0,71,0.00,,---,0.01,VWS V13.00,2013-07-20 04:17:00,
2013-07-19 21:22:00,69.1,59.7,30.06,East,95,0.0,0.0,72,0.00,,---,0.01,VWS V13.00,2013-07-20 04:22:00,
2013-07-19 21:27:00,68.8,59.4,30.06,East,95,0.0,0.0,72,0.00,,---,0.01,VWS V13.00,2013-07-20 04:27:00,
2013-07-19 21:32:00,68.4,59.4,30.06,East,93,0.0,0.0,73,0.00,,---,0.01,VWS V13.00,2013-07-20 04:32:00,
2013-07-19 21:37:00,68.1,59.5,30.06,East,95,0.0,0.0,74,0.00,,---,0.01,VWS V13.00,2013-07-20 04:37:00,
2013-07-19 21:42:00,67.6,59.0,30.06,East,95,0.0,0.0,74,0.00,,---,0.01,VWS V13.00,2013-07-20 04:42:00,
2013-07-19 21:47:00,67.3,59.1,30.06,East,93,0.0,0.0,75,0.00,,---,0.01,VWS V13.00,2013-07-20 04:47:00,
2013-07-19 21:52:00,66.9,58.7,30.06,East,95,0.0,0.0,75,0.00,,---,0.01,VWS V13.00,2013-07-20 04:52:00,
2013-07-19 21:57:00,66.4,58.6,30.06,East,95,0.0,0.0,76,0.00,,---,0.01,VWS V13.00,2013-07-20 04:57:00,
2013-07-19 22:02:00,66.3,58.9,30.06,East,93,0.0,0.0,77,0.00,,---,0.01,VWS V13.00,2013-07-20 05:02:00,
2013-07-19 22:07:00,66.0,58.6,30.07,East,95,0.0,0.0,77,0.00,,---,0.01,VWS V13.00,2013-07-20 05:07:00,
2013-07-19 22:12:00,65.6,58.6,30.07,East,95,0.0,0.0,78,0.00,,---,0.01,VWS V13.00,2013-07-20 05:12:00,
2013-07-19 22:17:00,65.3,58.3,30.07,East,95,0.0,0.0,78,0.00,,---,0.01,VWS V13.00,2013-07-20 05:17:00,
2013-07-19 22:22:00,65.0,58.3,30.07,East,93,0.0,0.0,79,0.00,,---,0.01,VWS V13.00,2013-07-20 05:22:00,
2013-07-19 22:27:00,64.8,58.1,30.07,East,95,0.0,0.0,79,0.00,,---,0.01,VWS V13.00,2013-07-20 05:27:00,
2013-07-19 22:32:00,64.5,58.2,30.07,East,95,0.0,0.0,80,0.00,,---,0.01,VWS V13.00,2013-07-20 05:32:00,
2013-07-19 22:37:00,64.3,58.3,30.07,East,95,0.0,0.0,81,0.00,,---,0.01,VWS V13.00,2013-07-20 05:37:00,
2013-07-19 22:42:00,64.0,58.1,30.07,East,95,0.0,0.0,81,0.00,,---,0.01,VWS V13.00,2013-07-20 05:42:00,
2013-07-19 22:47:00,63.9,58.0,30.07,East,95,0.0,0.0,81,0.00,,---,0.01,VWS V13.00,2013-07-20 05:47:00,
2013-07-19 22:52:00,63.5,57.9,30.07,East,93,0.0,0.0,82,0.00,,---,0.01,VWS V13.00,2013-07-20 05:52:00,
2013-07-19 22:57:00,63.4,57.8,30.07,East,93,0.0,0.0,82,0.00,,---,0.01,VWS V13.00,2013-07-20 05:57:00,
2013-07-19 23:02:00,63.2,58.0,30.07,East,95,0.0,0.0,83,0.00,,---,0.01,VWS V13.00,2013-07-20 06:02:00,
2013-07-19 23:07:00,63.1,57.9,30.07,East,95,0.0,0.0,83,0.00,,---,0.01,VWS V13.00,2013-07-20 06:07:00,
2013-07-19 23:12:00,62.9,58.0,30.07,East,95,0.0,0.0,84,0.00,,---,0.01,VWS V13.00,2013-07-20 06:12:00,
2013-07-19 23:17:00,62.7,57.8,30.07,East,95,0.0,0.0,84,0.00,,---,0.01,VWS V13.00,2013-07-20 06:17:00,
2013-07-19 23:22:00,62.6,57.7,30.07,East,93,0.0,0.0,84,0.00,,---,0.01,VWS V13.00,2013-07-20 06:22:00,
2013-07-19 23:27:00,62.4,57.5,30.07,East,95,0.0,0.0,84,0.00,,---,0.01,VWS V13.00,2013-07-20 06:27:00,
2013-07-19 23:32:00,62.4,57.8,30.07,East,95,0.0,0.0,85,0.00,,---,0.01,VWS V13.00,2013-07-20 06:32:00,
2013-07-19 23:37:00,62.3,57.7,30.07,East,95,0.0,0.0,85,0.00,,---,0.01,VWS V13.00,2013-07-20 06:37:00,
2013-07-19 23:42:00,62.1,57.5,30.07,East,95,0.0,0.0,85,0.00,,---,0.01,VWS V13.00,2013-07-20 06:42:00,
2013-07-19 23:47:00,61.8,57.6,30.07,East,95,0.0,0.0,86,0.00,,---,0.01,VWS V13.00,2013-07-20 06:47:00,
2013-07-19 23:52:00,61.6,57.4,30.07,East,93,0.0,0.0,86,0.00,,---,0.01,VWS V13.00,2013-07-20 06:52:00,
2013-07-19 23:57:00,61.5,57.3,30.07,East,95,0.0,0.0,86,0.00,,---,0.01,VWS V13.00,2013-07-20 06:57:00,